TimePDT,TemperatureF,Dew PointF,Humidity,Sea Level PressureIn,VisibilityMPH,Wind Direction,Wind SpeedMPH,Gust SpeedMPH,PrecipitationIn,Events,Conditions,WindDirDegrees,DateUTC
12:53 AM,51.1,48.0,89,30.22,8.0,NE,3.5,-,0.00,,Overcast,50,2013-03-12 07:53:00
1:53 AM,50.0,48.9,96,30.22,8.0,Calm,Calm,-,N/A,,Overcast,0,2013-03-12 08:53:00
2:53 AM,48.9,48.0,97,30.22,6.0,Calm,Calm,-,N/A,,Overcast,0,2013-03-12 09:53:00
3:53 AM,50.0,48.0,93,30.20,9.0,Calm,Calm,-,N/A,,Overcast,0,2013-03-12 10:53:00
4:53 AM,50.0,46.9,89,30.18,10.0,ESE,4.6,-,N/A,,Overcast,120,2013-03-12 11:53:00
5:53 AM,51.1,48.0,89,30.19,10.0,Calm,Calm,-,N/A,,Overcast,0,2013-03-12 12:53:00
6:53 AM,51.1,46.9,86,30.18,10.0,Calm,Calm,-,N/A,,Overcast,0,2013-03-12 13:53:00
7:53 AM,51.1,46.9,86,30.17,10.0,Calm,Calm,-,N/A,,Overcast,0,2013-03-12 14:53:00
8:53 AM,52.0,48.0,86,30.19,10.0,SE,3.5,-,N/A,,Overcast,140,2013-03-12 15:53:00
9:53 AM,54.0,48.0,80,30.20,10.0,SSW,5.8,-,N/A,,Overcast,200,2013-03-12 16:53:00
10:48 AM,55.4,48.2,77,30.20,10.0,South,6.9,-,N/A,,Overcast,190,2013-03-12 17:48:00
10:53 AM,55.9,48.9,77,30.20,10.0,South,8.1,-,N/A,,Overcast,190,2013-03-12 17:53:00
11:53 AM,55.9,48.0,75,30.21,10.0,SSW,10.4,-,N/A,,Overcast,210,2013-03-12 18:53:00
12:53 PM,57.0,48.0,72,30.21,10.0,SW,6.9,-,N/A,,Overcast,230,2013-03-12 19:53:00
1:50 PM,59.0,46.4,63,30.20,10.0,SW,6.9,-,N/A,,Overcast,220,2013-03-12 20:50:00
1:53 PM,59.0,48.0,67,30.19,10.0,SSW,6.9,-,N/A,,Overcast,210,2013-03-12 20:53:00
2:53 PM,59.0,46.9,64,30.17,10.0,South,8.1,-,N/A,,Overcast,190,2013-03-12 21:53:00
3:53 PM,61.0,46.0,58,30.17,10.0,SSW,9.2,-,N/A,,Scattered Clouds,200,2013-03-12 22:53:00
4:53 PM,60.1,46.0,60,30.15,10.0,SSW,6.9,-,N/A,,Partly Cloudy,200,2013-03-12 23:53:00
5:53 PM,59.0,45.0,60,30.16,10.0,SSW,9.2,-,N/A,,Clear,210,2013-03-13 00:53:00
6:53 PM,57.9,45.0,62,30.16,10.0,South,4.6,-,N/A,,Partly Cloudy,180,2013-03-13 01:53:00
7:53 PM,55.9,46.0,69,30.18,10.0,East,3.5,-,N/A,,Overcast,90,2013-03-13 02:53:00
9:53 PM,52.0,46.0,80,30.19,10.0,SE,4.6,-,N/A,,Scattered Clouds,140,2013-03-13 04:53:00
10:53 PM,50.0,46.0,86,30.20,10.0,Calm,Calm,-,N/A,,Partly Cloudy,0,2013-03-13 05:53:00
11:53 PM,48.0,45.0,89,30.20,10.0,East,4.6,-,N/A,,Partly Cloudy,100,2013-03-13 06:53:00